Location: Casone le Fosse
(44.6547°N, 12.1103°E)
Time: 08:41:03
(UTC+00:00)

BREEZE-M R/B - Pass Details

Date: 29 October 2020
Orbit: 309 x 4522 km, 49.7° (Epoch: 27 November)

Event Time Altitude Azimuth Distance (km) Brightness Sun altitude
Rises 17:46:40 0° 293° (WNW) 2,562 7.4 -18.7°
Reaches altitude 10° 17:48:18 10° 297° (WNW) 1,894 6.5 -19.0°
Maximum altitude 17:52:25 63° 19° (NNE) 966 3.8 -19.8°
Enters shadow 17:55:30 33° 88° (E) 1,790 4.8 -20.3°
